Location: Finney State Fishing Lake and Wildlife Area
(38.1834°N, 100.3310°W)
Time: 02:44:30
(UTC+00:00)

BlueWalker 3 - Pass Details

Date: 13 December 2022
Orbit: 499 x 517 km, 53.2° (Epoch: 03 February)

Event Time Altitude Azimuth Distance (km) Brightness Sun altitude
Rises 00:11:39 0° 313° (NW) 2,624 5.9 -9.7°
Reaches altitude 10° 00:13:51 10° 315° (NW) 1,732 5.0 -10.1°
Maximum altitude 00:17:47 76° 41° (NE) 526 1.9 -10.8°
Drops below altitude 10° 00:21:38 10° 128° (SE) 1,709 4.3 -11.5°
Enters shadow 00:23:44 - 129° (SE) 2,557 5.2 -11.9°
